Location: De Har
(53.3413°N, 6.6858°E)
Time: 09:08:07
(UTC+00:00)

CZ-4C R/B - Pass Details

Date: 22 April 2026
Orbit: 475 x 1502 km, 63.4° (Epoch: 15 May)

Event Time Altitude Azimuth Distance (km) Brightness Sun altitude
Exits shadow 03:06:55 - 272° (W) 2,393 4.1 -10.1°
Reaches altitude 10° 03:07:37 10° 276° (W) 2,152 3.9 -10.0°
Maximum altitude 03:12:12 37° 344° (NNW) 1,266 3.3 -9.5°
Drops below altitude 10° 03:18:05 10° 51° (NE) 2,781 6.6 -8.8°
Sets 03:21:18 0° 59° (ENE) 3,922 8.2 -8.4°
